Location: Sinnemahoning State Park
(41.4031°N, 78.0230°W)
Time: 00:55:09
(UTC-04:00)

Daily predictions for brighter satellites

Satellite Brightness Start Highest point End
(mag) Time Altitude Azimuth Time Altitude Azimuth Time Altitude Azimuth
BREEZE-M DEB (TANK) 4.3 00:00:43 10° NW 00:03:09 27° NNE 00:08:28 10° ENE
ALOS 2 3.8 00:07:31 34° NE 00:07:31 34° NE 00:10:58 10° N
Cosmos 1535 Rocket 4.4 00:09:27 65° SE 00:10:10 71° E 00:16:33 10° NNE
H-2A R/B 4.2 00:07:12 10° NNE 00:09:53 27° ENE 00:09:53 27° ENE
ASTEX 1 4.0 00:07:09 10° N 00:11:54 49° W 00:12:25 46° W
Timation 1 Rocket 4.3 00:15:58 66° SW 00:16:51 83° WNW 00:22:54 10° NNE
Terra 3.6 00:16:52 20° WSW 00:17:19 21° W 00:20:54 10° NW
Okean 1-7 Rocket 4.1 00:13:56 10° NNW 00:17:45 57° NW 00:17:45 57° NW
Meteor 1-13 Rocket 4.2 00:16:50 10° NNW 00:22:47 80° W 00:23:12 75° SW
Meteor 2-21 4.3 00:23:23 75° S 00:23:59 89° E 00:30:14 10° N
Okean 1 Rocket 3.8 00:24:31 50° NW 00:24:31 50° NW 00:28:28 10° N
Lacrosse 5 3.8 00:27:11 18° ENE 00:27:11 18° ENE 00:28:40 10° ENE
NOSS 3-1 (C) 4.4 00:16:46 10° NNW 00:24:09 57° NE 00:27:26 36° ESE
Cosmos 1809 Rocket 4.3 00:24:57 74° SSW 00:25:34 88° W 00:31:49 10° N
CZ-2C R/B 4.2 00:22:11 10° NE 00:25:21 22° ENE 00:25:21 22° ENE
Cosmos 1302 Rocket 4.1 00:32:00 70° NE 00:32:00 70° NE 00:36:43 10° NNE
USA 234 4.4 00:25:46 10° NE 00:31:48 41° NNW 00:37:48 10° W
Cosmos 1025 Rocket 3.8 00:28:43 10° N 00:32:03 51° N 00:32:03 51° N
Meteor 1-11 Rocket 3.7 00:33:06 76° SW 00:33:27 80° W 00:39:19 10° N
Cosmos 1833 Rocket 3.5 00:34:06 10° NW 00:39:00 38° W 00:39:00 38° W
Gbstr 26 Del rocket 4.1 00:36:25 10° NW 00:40:15 41° N 00:40:15 41° N
Meteor 2-4 Rocket 3.6 00:37:36 10° N 00:42:48 79° NE 00:42:48 79° NE
Cosmos 1536 4.3 00:51:04 36° NNW 00:51:04 36° NNW 00:53:36 10° N
Cosmos 1943 Rocket 3.9 00:52:36 20° E 00:52:36 20° E 00:55:32 10° NE
Cosmos 2082 Rocket 3.7 00:47:14 10° NW 00:51:28 24° W 00:51:28 24° W
Cosmos 1400 Rocket 4.3 00:56:13 36° NNW 00:56:13 36° NNW 00:59:00 10° N
Cosmos 1503 Rocket 4.1 00:57:58 10° NNW 01:02:38 71° NNW 01:02:38 71° NNW
MOS 1-B Rocket 3.8 01:08:11 84° S 01:08:25 89° WSW 01:14:58 10° NNW
Meteor 2-15 Rocket 4.4 01:03:41 10° NNW 01:09:47 69° W 01:09:55 68° WSW
CZ-4B R/B 4.3 01:12:27 15° NNW 01:12:27 15° NNW 01:13:04 10° NNW
Cosmos 2285 Rocket 3.9 01:13:36 74° WSW 01:14:04 79° WNW 01:20:30 10° NNE
Cosmos 1605 Rocket 4.1 01:16:56 63° WSW 01:17:29 66° W 01:23:52 10° N
Cosmos 1459 Rocket 4.2 01:20:30 54° E 01:20:40 54° E 01:26:36 10° NNE
Cosmos 1153 Rocket 4.4 01:29:04 73° WSW 01:29:29 76° W 01:35:52 10° N
Cosmos 1818 4.4 01:31:29 42° E 01:31:29 42° E 01:35:37 10° NE
SeaSat 1 3.4 01:33:33 40° ENE 01:34:08 41° NE 01:38:45 10° NNW
Cosmos 2173 Rocket 3.9 01:36:12 70° ESE 01:36:32 71° E 01:42:51 10° NNE
Gblst 52 Del rocket 4.5 01:37:53 74° SW 01:38:36 88° SE 01:44:53 10° NE
NOSS 3-1 (A) 4.0 01:35:10 10° NW 01:42:47 71° WSW 01:44:02 62° S
Cosmos 968 Rocket 4.3 01:38:24 10° N 01:43:24 43° ENE 01:43:52 42° E
Cosmos 2369 Rocket 2.5 01:43:16 55° WNW 01:43:31 56° WNW 01:49:04 10° NNE
Helios 1A Rocket 4.3 01:40:42 10° N 01:43:33 35° NNW 01:43:33 35° NNW
H-2A R/B 4.4 01:43:02 10° NNW 01:46:31 25° WNW 01:46:31 25° WNW
Meteor 1-12 Rocket 4.2 01:48:04 74° WNW 01:48:04 74° WNW 01:53:37 10° N
ISS -0.3 01:48:33 15° NNW 01:48:50 15° N 01:50:52 10° NNE
Cosmos 1066 Rocket 4.3 01:44:39 10° N 01:49:55 65° ENE 01:49:55 65° ENE
Lacrosse 5 rocket 3.1 02:02:21 27° N 02:02:21 27° N 02:04:46 10° NNE
ATLAS 2AS CENTAUR R/B 3.2 01:56:21 10° NNW 02:04:30 71° NE 02:08:36 31° SE
CZ-2C R/B 3.3 02:01:54 10° N 02:06:47 42° WNW 02:06:52 42° WNW
Lacrosse 5 2.6 02:06:21 43° WNW 02:06:58 45° NW 02:11:53 10° NE
PSLV R/B 4.3 02:13:01 10° NNE 02:16:42 51° ENE 02:16:42 51° ENE
CZ-2C R/B 3.8 02:19:48 39° WNW 02:19:48 39° WNW 02:23:36 10° NNW
Cosmos 1666 4.4 02:20:16 29° ENE 02:20:16 29° ENE 02:22:45 10° NNE
SL-08 R/B 4.4 02:26:46 66° SW 02:27:39 77° W 02:34:05 10° N
Cosmos 1656 Rocket 3.6 02:33:31 73° SSE 02:33:54 77° ESE 02:39:33 10° NNE
Cosmos 1943 Rocket 2.5 02:34:07 49° W 02:34:41 51° WNW 02:40:09 10° NNE
Cosmos 1606 Rocket 4.0 02:36:15 58° NNW 02:36:15 58° NNW 02:39:50 10° N
Cosmos 2228 3.8 02:36:03 44° E 02:36:03 44° E 02:39:54 10° NNE
NPP 4.1 02:34:13 10° NNE 02:39:27 49° E 02:40:15 46° SE
Cosmos 44 Rocket 3.2 02:42:05 10° NNW 02:47:14 89° NE 02:47:25 84° SE
Cosmos 2058 Rocket 3.1 02:47:43 74° N 02:47:43 74° N 02:51:46 10° N
AQUA 4.3 02:45:34 10° NNE 02:50:11 49° E 02:50:39 47° ESE
Meteor 1-21 4.1 02:44:51 10° NNW 02:50:25 67° W 02:50:49 65° WSW
SL-8 R/B 3.9 02:46:06 10° WNW 02:50:54 70° NNE 02:55:40 10° ESE
Resurs 1-4 Rocket 4.3 02:49:48 10° NE 02:53:16 18° E 02:56:07 12° SE
Cosmos 2233 Rocket 3.8 02:59:20 56° SSW 03:00:46 85° W 03:06:56 10° N
Cosmos 1570 Rocket 3.9 03:00:19 68° SSW 03:01:02 87° ESE 03:06:25 10° NNE
Meteor 1-15 Rocket 4.2 03:00:27 57° S 03:01:43 85° E 03:07:36 10° N
Cosmos 2098 Rocket 4.4 03:05:21 44° WSW 03:06:55 52° WNW 03:14:05 10° N
ERS-2 3.0 03:05:07 10° NNE 03:08:37 44° E 03:08:37 44° E
ADEOS 4.1 03:04:57 10° NNE 03:10:03 52° E 03:11:35 39° SSE
SeaSat 1 3.9 03:13:21 22° WNW 03:13:21 22° WNW 03:15:53 10° NW
SL-08 R/B 3.1 03:12:33 70° SSW 03:13:04 80° WSW 03:17:45 10° NNW
BREEZE-M DEB (TANK) 2.9 03:09:51 10° WNW 03:20:02 86° SSW 03:22:11 23° SE
Cosmos 972 Rocket 3.9 03:18:24 10° NNW 03:23:20 78° ENE 03:25:39 33° SSE
Cosmos 1842 4.5 03:20:05 10° NNW 03:22:48 31° WNW 03:22:48 31° WNW
ISS -0.2 03:24:10 10° NNW 03:26:16 16° N 03:28:21 10° NE
Geosat 4.1 03:22:00 10° NNE 03:27:00 66° WNW 03:28:15 48° WSW
Cosmos 2082 4.3 03:21:33 10° NNW 03:27:06 54° ENE 03:32:34 10° SE
Cosmos 2219 3.8 03:26:46 10° NW 03:31:46 35° WSW 03:31:46 35° WSW
ARIANE 5 R/B 3.1 03:27:53 10° NNE 03:32:54 52° E 03:35:16 29° SSE
NOSS 3-3 (A) 4.3 03:31:06 35° WSW 03:33:42 59° NW 03:40:24 10° NNE
NOSS 3-3 (C) 4.3 03:31:12 35° WSW 03:33:48 59° NW 03:40:30 10° NNE
Cosmos 1340 4.4 03:36:46 10° NW 03:38:47 21° WNW 03:38:47 21° WNW
Milstar 3 Cent rocket 3.8 03:39:47 20° SSE 03:40:03 20° SSE 03:45:01 10° ESE
OPS 8737 4.4 03:40:17 65° NNW 03:40:17 65° NNW 03:43:16 10° NNE
CZ-2D R/B 2.9 03:34:54 10° NNE 03:40:11 47° E 03:43:29 21° SSE
Cosmos 44 3.2 03:35:09 10° NW 03:40:19 70° WSW 03:42:36 31° SSE
Cosmos 2227 Rocket 2.4 03:35:01 10° NNW 03:40:43 74° ENE 03:46:22 10° SSE
Spot 4 Rocket 4.0 03:36:14 10° NNE 03:41:26 89° ESE 03:43:25 39° SSW
SL-16 R/B 2.8 03:36:01 10° SSE 03:42:09 68° ENE 03:48:16 10° N
IRS-1C 4.2 03:37:49 10° N 03:43:07 65° WNW 03:44:57 40° SW
ERS-1 4.4 03:38:57 10° NNE 03:44:05 87° ESE 03:46:04 38° SSW
SAR-Lupe-3 4.4 03:44:32 62° SSE 03:45:03 85° ENE 03:48:34 10° NNW
Lacrosse 5 4.3 03:47:51 10° NW 03:51:06 17° NNW 03:54:22 10° NNE
Cosmos 2034 Rocket 4.0 03:47:56 26° S 03:51:38 83° E 03:57:52 10° N
Cosmos 2298 Rocket 4.0 03:47:20 10° NNW 03:52:40 88° ENE 03:57:30 13° SSE
IRS-1D 3.5 03:47:52 10° NNE 03:52:50 74° ESE 03:55:21 29° S
Cosmos 2278 3.6 03:51:23 35° SSW 03:53:50 83° WNW 03:59:32 10° NNE
Cosmos 2369 3.6 03:51:18 34° SSW 03:53:52 87° ESE 03:59:34 10° NNE
ATLAS 2AS CENTAUR R/B 3.8 03:48:25 10° NW 03:54:49 27° WSW 03:55:56 26° WSW
Okean O Rocket 3.7 03:53:03 10° NE 03:56:31 22° E 03:59:58 10° SSE
USA 161 2.0 03:57:20 49° NW 03:57:20 49° NW 03:59:43 10° NNW
Cosmos 405 Rocket 2.7 03:57:09 10° NNW 04:01:14 69° W 04:02:38 38° SSW
Cosmos 2297 Rocket 2.3 03:57:09 10° NNW 04:02:49 79° ENE 04:08:27 10° SSE
UNK 3.7 04:01:08 19° SSE 04:04:33 89° WSW 04:09:16 10° NNW
Cosmos 1814 Rocket 4.1 04:02:38 27° S 04:05:35 78° ESE 04:10:57 10° NNE
ATLAS CENTAUR R/B 2.4 04:03:58 25° S 04:06:37 52° ESE 04:11:30 10° NE
UNKNOWN OBJECT B 3.4 04:03:11 10° NNE 04:07:03 53° E 04:09:18 22° S
Cosmos 1953 4.3 04:04:48 10° SE 04:08:08 26° E 04:11:30 10° NNE
Cosmos 972 4.3 04:03:36 10° NNW 04:08:29 79° WSW 04:13:08 12° S
Nadezhda 4 Rocket 4.1 04:04:07 10° N 04:10:19 80° E 04:16:33 10° S
Meteor 1-24 Rocket 3.8 04:05:15 10° N 04:10:56 82° E 04:16:48 10° SSE
GEOS 3 Rocket 3.7 04:10:14 10° SSE 04:15:19 53° WSW 04:20:24 10° NW
Cosmos 1076 Rocket 3.9 04:13:35 10° N 04:17:54 63° E 04:22:10 10° SSE
Cosmos 220 Rocket 4.0 04:15:19 10° NNW 04:19:35 55° WSW 04:22:31 19° S
EO 1 Del DPAF 3.2 04:17:32 21° S 04:19:59 70° WSW 04:23:52 10° NNW
Cosmos 1766 Rocket 3.7 04:26:59 10° N 04:31:23 78° E 04:35:48 10° S
Cosmos 1408 Rocket 3.6 04:27:20 10° N 04:31:44 86° E 04:36:08 10° S
Cosmos 2150 Rocket 4.3 04:27:03 10° NNW 04:32:03 46° WSW 04:36:56 10° S
SL-8 R/B 4.4 04:29:04 10° WNW 04:33:11 29° SW 04:37:18 10° SSE
Cosmos 1805 4.3 04:29:32 10° SSE 04:33:15 43° E 04:37:00 10° NNE
Resurs 1-4 Rocket 2.3 04:28:19 10° N 04:33:29 58° WNW 04:37:12 19° SW
Cosmos 1378 3.1 04:31:13 10° N 04:35:01 80° W 04:38:48 10° S
Cosmos 468 Rocket 4.4 04:32:14 21° SW 04:35:25 49° WNW 04:40:26 10° N
CZ-4B R/B 3.9 04:32:04 10° NNE 04:37:32 52° E 04:42:49 10° S
Cosmos 990 Rocket 3.9 04:33:03 10° NNW 04:38:19 80° WSW 04:43:34 10° SSE
Cosmos-2242 3.3 04:35:56 10° S 04:40:13 67° E 04:44:31 10° NNE
Cosmos 1707 3.9 04:37:36 10° NW 04:40:52 25° W 04:42:16 20° WSW
Cosmos 1441 Rocket 3.2 04:37:38 10° N 04:41:37 84° W 04:45:37 10° S
Cosmos 1634 Rocket 4.1 04:35:35 10° S 04:41:46 79° E 04:48:05 10° N
ERS-2 4.4 04:40:21 10° NW 04:42:07 13° WNW 04:43:27 11° W
MOZ.5/SAFIR/RUBIN 5/SL-8 4.2 04:38:00 10° SSE 04:42:42 68° ENE 04:47:23 10° N
BREEZE-M DEB (TANK)4.404:50:54SSE04:50:54SSE04:45:37W
CZ-4B R/B 3.5 04:47:12 10° NNE 04:51:11 53° E 04:54:55 10° S
Cosmos 1898 Rocket 4.3 04:46:59 10° NW 04:51:38 31° W 04:56:15 10° SSW
NOSS 2-1 (D) 4.3 04:49:20 16° WSW 04:52:06 39° NW 04:56:22 10° NNE
NOSS 2-1 (C) 4.3 04:50:37 16° WSW 04:53:26 39° NW 04:57:42 10° NNE
Cosmos 1092 Rocket 4.1 04:50:07 10° NNW 04:56:18 61° W 05:02:29 10° S
Cosmos 1125 Rocket 4.0 04:52:47 10° NNW 04:57:59 64° ENE 05:03:08 10° SSE
BREEZE-M DEB 4.3 04:57:11 10° WNW 04:59:33 42° SSW 05:02:49 10° SE
BREEZE-M DEB (TANK) 3.4 04:57:22 10° WNW 05:00:04 43° NNE 05:04:55 10° E
BREEZE-M DEB (TANK) 3.8 04:56:45 10° W 05:01:00 31° NNW 05:03:13 10° NE
ISS -2.1 05:00:08 10° NW 05:03:18 46° NNE 05:06:28 10° ESE
GPS 2-04 Rocket1 3.6 05:01:21 14° SW 05:04:03 31° S 05:07:21 10° ESE
Cosmos 1656 4.3 05:02:20 13° SW 05:07:14 44° WNW 05:12:40 10° NNE
Cosmos 1937 Rocket 4.3 05:04:57 10° NW 05:09:23 29° W 05:13:49 10° SSW
Cosmos 841 Rocket 3.7 05:04:53 10° SW 05:09:59 57° WNW 05:15:12 10° NNE
ASTRO E2 4.3 05:07:59 12° SW 05:10:20 18° S 05:13:11 10° SE
CZ-4B DEB 4.3 05:04:58 10° NNE 05:10:34 90° WNW 05:16:06 10° SSW
ARIANE 5 R/B 4.1 05:07:59 10° NNW 05:11:38 20° WNW 05:15:18 10° WSW
PSLV R/B 4.2 05:10:35 10° N 05:14:21 46° WNW 05:17:58 10° SW
Cosmos 1697 Rocket 3.1 05:10:27 10° SW 05:15:54 50° WNW 05:21:26 10° NNE
NOSS 3-4 (A) 4.0 05:11:13 10° NW 05:17:57 50° WSW 05:25:04 10° S
NOSS 3-4 (C) 4.0 05:11:19 10° NW 05:18:06 51° WSW 05:25:14 10° S
Cosmos 1763 Rocket 4.1 05:14:44 10° SW 05:19:42 41° WNW 05:24:37 10° N
CZ-2D R/B 3.5 05:15:36 10° NNW 05:19:56 24° WNW 05:24:12 10° WSW
In-Cosmos 22 4.3 05:15:20 10° NNW 05:20:27 52° W 05:25:33 10° S
Thor Agena Rocket 3.5 05:16:50 10° S 05:21:50 64° WSW 05:26:51 10° NNW
UNK 4.3 05:19:51 10° NW 05:21:54 19° N 05:23:32 10° ENE
Cosmos 1980 Rocket 2.3 05:16:48 10° SSW 05:22:24 72° WNW 05:28:04 10° NNE
ARGOS Delta rocket 4.0 05:17:30 10° N 05:22:44 75° WNW 05:27:39 10° SSW
Cosmos 2227 Rocket 3.8 05:20:57 10° WNW 05:24:02 15° W 05:27:08 10° SW
Cosmos 1470 3.0 05:21:55 10° S 05:25:49 77° E 05:29:47 10° N
SL-16 R/B 3.9 05:22:06 10° SW 05:26:17 19° W 05:30:27 10° NW
Cosmos 2322 Rocket 3.0 05:26:07 10° S 05:31:33 54° ESE 05:37:01 10° NNE
CZ-3 Stage 3 4.2 05:07:53 10° W 05:36:06 44° SSW 05:41:55 10° SE
